Temp
87 86 87 89 86 89 83 86 86 80 83 91 91 96 95 94 91 92 90 78 74 74 73 72 73 74 74 75 76 76 75 76 76 75 74 76 76 75
86 84 83 87 87 89 90 89 85 84 77 82 89 93 91 91 90 92 91 78 74 73 73 72 73 73 74 73 74 74 75 74 74 74 73 74 74 74
84 82 82 82 84 88 87 86 84 77 75 86 92 90 86 87 89 91 90 89 86 70 70 70 70 70 71 72 72 72 72 73 73 73 73 73 73 73
83 79 79 78 79 80 79 81 83 80 83 77 84 85 86 85 85 84 88 89 74 71 70 69 70 69 70 70 70 70 69 69 70 70 72 72 73 72
78 77 77 76 75 77 78 79 78 76 73 76 78 87 86 86 84 85 85 84 89 73 69 69 70 68 68 67 67 66 64 65 66 67 67 68 70 71
77 76 72 71 70 71 75 75 75 75 77 73 71 71 80 82 81 79 80 81 75 80 73 74 73 71 69 67 67 66 63 61 61 62 63 65 66 68
76 78 74 70 68 67 71 70 70 71 71 71 71 69 66 67 67 69 73 75 72 74 69 72 74 76 77 72 72 68 65 63 61 60 60 61 62 64
71 75 76 73 71 67 67 67 67 68 67 64 62 61 60 62 61 61 65 68 67 67 68 70 75 75 70 69 67 64 63 62 62 61 60 60 60 61
74 74 76 76 72 72 71 70 69 68 68 69 66 64 62 62 61 61 61 62 65 73 70 65 71 72 73 68 65 65 63 61 61 61 60 59 59 59
73 74 73 72 68 69 73 73 73 71 70 72 69 68 70 68 68 69 69 69 72 73 70 68 73 72 73 73 67 65 62 60 60 59 59 58 57 56
72 70 71 71 62 63 72 72 72 73 64 64 64 65 64 64 66 70 67 67 69 70 73 71 72 70 71 71 68 64 63 60 58 58 58 57 55 54
73 70 62 65 61 62 71 72 70 72 73 74 73 69 70 68 65 70 69 66 64 66 69 69 68 63 61 65 64 64 64 61 59 57 57 56 55 71
76 75 73 61 59 61 63 71 70 68 74 74 73 74 75 74 68 69 69 65 63 63 60 64 62 60 59 61 63 63 62 62 63 62 57 56 54 56
73 74 73 60 60 61 70 62 62 69 79 76 70 67 72 73 73 72 70 69 69 62 61 62 59 57 57 57 58 65 60 57 57 58 60 59 57 55
77 69 65 64 61 64 64 65 68 77 76 75 74 75 73 76 74 75 71 70 68 67 68 62 62 60 60 57 57 58 59 64 59 57 57 57 59 59
70 76 72 69 64 67 75 75 78 77 75 74 74 77 78 78 76 77 75 76 76 74 70 69 66 67 68 69 71 71 73 69 66 65 61 60 59 59
60 78 78 77 76 76 76 76 77 76 74 74 72 72 73 72 71 73 75 73 71 69 68 65 66 67 70 64 67 71 71 72 74 68 66 67 68 65
69 76 75 75 73 73 73 73 74 72 72 72 72 72 71 70 67 71 68 68 66 70 69 70 71 69 70 71 66 62 64 66 69 69 70 69 68 71
75 75 74 74 73 73 72 72 71 72 71 71 70 71 71 71 70 69 70 71 66 65 65 68 69 64 60 61 69 64 65 66 70 70 70 70 69 71
76 75 74 74 73 72 71 71 71 71 70 70 70 70 70 69 68 68 69 67 65 67 67 67 61 66 62 61 60 67 60 62 63 63 65 69 71 65
76 75 75 74 73 72 71 70 70 70 69 69 69 68 70 69 66 65 64 58 59 63 62 64 65 64 69 69 63 65 68 61 62 67 67 66 65 66
76 75 74 74 72 71 70 70 70 70 69 68 67 68 66 66 64 59 63 61 60 64 64 64 66 66 65 61 58 59 62 67 65 59 59 61 65 60
75 75 73 73 73 72 70 70 70 69 68 67 67 66 63 64 62 62 63 61 64 63 61 58 62 63 62 61 59 61 59 62 65 64 66 61 59 58
MSLP
1013.78 1013.74 1013.92 1013.51 1013.48 1013.17 1012.85 1012.48 1012.28 1012.08 1011.51 1010.83 1010.76 1010.68 1010.98 1011.55 1011.58 1011.82 1012.04 1012.49 1012.99 1013.16 1013.44 1013.90 1014.19 1014.41 1014.80 1015.07 1015.36 1015.62 1015.90 1016.27 1016.49 1016.84 1017.27 1017.67 1018.15 1018.73
1013.98 1013.96 1014.27 1013.91 1013.81 1013.63 1013.18 1012.94 1012.95 1012.83 1012.74 1012.53 1011.64 1011.14 1011.52 1011.79 1011.68 1011.58 1011.42 1011.86 1012.34 1012.41 1012.60 1013.14 1013.52 1013.99 1014.38 1014.71 1014.90 1015.00 1015.24 1015.51 1015.83 1016.15 1016.57 1016.96 1017.34 1017.93
1014.36 1014.36 1014.35 1014.41 1014.27 1013.65 1013.69 1013.64 1013.48 1013.56 1013.24 1011.96 1011.31 1011.66 1012.15 1012.09 1011.83 1011.58 1011.44 1011.18 1011.11 1012.76 1012.95 1014.00 1013.94 1013.74 1014.05 1014.29 1014.56 1014.65 1014.68 1014.82 1015.02 1015.41 1015.73 1016.18 1016.64 1017.05
1014.33 1014.67 1014.70 1014.82 1014.65 1014.47 1014.23 1013.79 1013.39 1013.09 1012.76 1012.48 1012.19 1012.25 1012.09 1012.37 1012.45 1012.35 1011.82 1011.55 1011.97 1012.60 1013.45 1012.69 1013.71 1013.51 1013.95 1014.22 1014.32 1014.42 1014.30 1014.29 1014.42 1014.55 1014.85 1015.29 1015.64 1015.97
1015.40 1015.35 1015.38 1015.31 1015.11 1014.72 1014.30 1013.83 1013.59 1013.44 1013.32 1013.02 1012.58 1011.85 1012.10 1012.51 1012.49 1012.20 1012.16 1012.21 1011.65 1012.82 1013.44 1013.77 1013.44 1013.74 1013.66 1013.79 1013.94 1014.13 1014.09 1013.79 1013.92 1014.10 1014.28 1014.43 1014.55 1015.13
1016.06 1016.07 1016.37 1016.39 1016.24 1015.80 1015.11 1014.63 1014.36 1014.05 1013.62 1013.47 1013.34 1013.12 1012.43 1012.43 1013.02 1012.95 1012.65 1012.95 1013.32 1013.16 1013.22 1013.17 1013.60 1013.50 1013.48 1013.15 1013.34 1013.47 1013.62 1013.56 1013.62 1013.71 1013.81 1013.88 1014.20 1014.37
1016.68 1016.53 1017.03 1017.13 1017.08 1016.73 1016.07 1015.66 1015.19 1014.60 1014.31 1014.10 1013.96 1013.79 1013.88 1013.67 1014.16 1014.39 1013.98 1014.02 1014.34 1014.32 1013.85 1013.73 1013.88 1013.92 1013.63 1013.26 1013.71 1013.85 1013.58 1013.50 1013.48 1013.48 1013.51 1013.62 1013.64 1013.89
1017.43 1016.98 1016.89 1017.15 1017.07 1016.91 1016.78 1016.54 1016.27 1015.61 1015.33 1015.24 1015.41 1015.29 1015.61 1015.60 1015.61 1015.68 1015.32 1014.93 1014.47 1014.80 1014.44 1014.18 1014.37 1013.88 1014.15 1014.37 1014.61 1014.22 1013.80 1013.63 1013.53 1013.42 1013.32 1013.26 1013.31 1013.35
1017.87 1017.75 1017.60 1017.65 1017.52 1017.07 1016.76 1016.54 1016.35 1016.39 1016.21 1015.84 1015.89 1016.08 1016.16 1016.32 1016.30 1016.08 1015.82 1015.60 1015.10 1014.72 1014.99 1014.65 1014.50 1013.95 1014.02 1014.28 1014.16 1014.15 1013.78 1013.61 1013.60 1013.52 1013.36 1013.25 1013.01 1012.93
1018.60 1018.47 1018.30 1018.32 1018.31 1017.90 1017.27 1016.81 1016.58 1016.80 1016.83 1016.53 1016.50 1016.48 1016.34 1016.38 1016.13 1015.88 1015.65 1015.43 1014.84 1014.53 1014.95 1014.32 1014.13 1013.82 1013.85 1013.52 1013.88 1014.11 1013.96 1013.77 1014.18 1013.72 1013.43 1013.21 1013.00 1012.88
1019.11 1019.43 1019.12 1018.95 1018.82 1018.19 1017.46 1016.97 1016.71 1016.53 1016.91 1017.02 1016.96 1016.86 1016.75 1016.68 1016.55 1016.02 1015.49 1015.16 1014.32 1014.02 1014.41 1014.47 1014.01 1014.08 1013.79 1013.57 1013.61 1013.73 1013.75 1013.75 1014.01 1013.89 1013.59 1013.32 1013.18 1012.79
1019.15 1019.53 1019.85 1019.63 1019.19 1018.57 1017.89 1017.38 1017.03 1016.81 1016.58 1016.13 1016.35 1016.32 1016.26 1016.30 1016.46 1016.08 1015.66 1015.28 1015.12 1014.54 1014.99 1014.91 1014.66 1014.92 1014.39 1014.11 1014.12 1013.81 1013.75 1013.78 1013.83 1013.77 1013.60 1013.40 1013.26 1012.18
1018.77 1019.27 1019.87 1019.96 1019.56 1019.04 1018.49 1018.05 1017.62 1017.19 1016.45 1016.45 1016.34 1016.11 1015.91 1015.93 1016.45 1016.32 1016.15 1016.13 1015.85 1015.72 1016.34 1015.69 1015.52 1015.48 1015.20 1014.63 1014.35 1014.33 1014.17 1013.98 1013.66 1013.45 1013.33 1013.29 1013.26 1013.20
1019.71 1019.97 1019.84 1019.80 1019.66 1019.14 1018.68 1018.24 1017.49 1016.50 1015.98 1015.88 1016.38 1016.30 1015.98 1015.90 1016.07 1016.29 1016.30 1016.15 1016.03 1016.14 1015.94 1015.71 1015.77 1015.77 1015.59 1015.07 1014.60 1014.24 1014.57 1014.64 1014.32 1014.09 1013.79 1013.44 1013.10 1012.93
1020.04 1019.97 1019.74 1019.33 1019.12 1018.89 1018.51 1017.98 1017.51 1017.26 1016.70 1016.19 1015.84 1015.61 1015.81 1015.65 1015.70 1015.43 1015.54 1015.50 1015.65 1015.74 1015.60 1015.66 1015.41 1015.36 1015.29 1014.92 1014.54 1014.01 1013.96 1014.04 1014.13 1014.06 1013.86 1013.63 1013.57 1013.27
1020.43 1019.59 1019.38 1019.21 1018.92 1018.59 1018.05 1017.76 1017.49 1017.37 1017.07 1016.76 1016.29 1015.76 1015.48 1015.21 1015.04 1014.82 1014.62 1014.29 1013.94 1013.67 1014.62 1015.15 1015.28 1015.12 1014.31 1013.59 1013.05 1012.59 1012.21 1012.30 1012.84 1013.23 1013.47 1013.25 1013.10 1012.82
1021.08 1019.41 1018.94 1018.79 1018.55 1018.43 1018.20 1018.02 1017.76 1017.65 1017.53 1017.30 1017.18 1016.77 1016.31 1016.12 1015.79 1015.60 1014.88 1014.70 1014.28 1014.33 1014.53 1014.82 1014.85 1014.79 1014.30 1013.92 1013.36 1012.45 1012.00 1011.69 1011.57 1012.12 1012.64 1012.21 1011.87 1011.98
1021.17 1019.48 1019.14 1018.98 1018.81 1018.68 1018.43 1018.28 1018.21 1018.14 1018.19 1017.88 1017.38 1016.91 1016.61 1016.31 1016.17 1015.90 1015.89 1015.59 1015.25 1014.75 1014.76 1014.51 1014.12 1014.01 1013.52 1013.12 1013.19 1013.07 1012.82 1012.73 1012.40 1012.17 1011.86 1011.42 1010.97 1010.84
1020.31 1019.60 1019.44 1019.30 1019.21 1019.20 1019.05 1018.92 1018.76 1018.68 1018.81 1018.56 1018.14 1017.53 1017.13 1016.70 1016.35 1016.05 1015.68 1015.24 1015.29 1015.12 1014.94 1014.45 1013.82 1013.68 1013.66 1013.22 1013.06 1012.95 1013.23 1012.78 1012.19 1011.64 1011.31 1011.00 1010.44 1010.38
1020.03 1019.75 1019.62 1019.51 1019.48 1019.57 1019.55 1019.41 1019.32 1018.95 1018.99 1018.92 1018.50 1018.08 1017.73 1017.30 1016.80 1016.42 1016.05 1015.77 1015.58 1015.18 1014.83 1014.54 1014.49 1014.31 1014.18 1013.74 1013.44 1013.14 1012.83 1012.67 1012.33 1012.00 1011.61 1011.09 1010.86 1010.62
1019.97 1019.89 1019.90 1019.88 1019.88 1019.99 1019.89 1019.75 1019.66 1019.26 1019.22 1019.16 1018.80 1018.51 1017.85 1017.51 1017.54 1017.57 1017.40 1017.22 1016.60 1015.93 1015.39 1014.89 1014.68 1014.46 1014.01 1013.68 1013.28 1012.64 1012.34 1011.95 1012.14 1011.92 1011.57 1011.32 1010.85 1010.40
1019.96 1020.02 1020.10 1020.16 1020.15 1020.24 1020.18 1019.97 1019.60 1019.38 1019.30 1019.30 1019.19 1018.77 1018.71 1018.51 1018.49 1018.41 1017.81 1017.33 1016.83 1016.14 1015.63 1015.16 1014.39 1014.11 1013.91 1013.70 1013.45 1013.14 1012.63 1012.30 1011.98 1011.91 1011.73 1011.39 1010.92 1010.65
1019.87 1020.13 1020.30 1020.28 1020.17 1020.20 1020.25 1020.09 1019.86 1019.72 1019.66 1019.74 1019.43 1019.21 1019.44 1018.98 1019.27 1018.71 1017.77 1017.25 1016.56 1015.96 1015.54 1015.26 1014.67 1014.25 1014.04 1013.90 1013.70 1013.24 1013.08 1012.60 1012.19 1011.94 1011.34 1011.27 1011.43 1011.32
Wind_Speed
6 4 6 7 5 6 5 5 5 8 8 7 3 2 2 3 2 7 10 14 14 14 13 13 14 14 13 15 16 17 17 20 21 22 23 26 25 29
7 6 7 7 7 8 7 6 5 6 7 7 10 7 5 4 4 5 5 10 16 16 15 13 13 12 12 13 14 16 17 17 17 20 21 24 26 26
6 5 7 5 7 7 5 6 6 3 7 9 6 8 5 4 6 7 4 8 3 6 6 6 6 8 10 10 11 13 14 15 16 18 21 22 23 26
8 7 6 4 6 7 7 7 7 8 7 9 8 8 1 6 5 7 7 7 6 13 20 5 10 7 5 6 8 11 11 13 14 16 19 21 23 25
11 10 11 11 9 8 8 8 6 6 5 6 8 6 4 4 5 6 3 6 1 13 17 10 6 9 9 10 10 11 12 10 12 12 13 17 21 23
11 11 11 11 10 10 10 10 8 8 8 5 5 7 6 5 3 4 3 5 8 8 8 8 6 8 12 10 12 13 12 10 10 10 12 14 15 20
10 10 13 11 16 15 9 11 11 8 7 7 5 4 5 7 6 3 3 2 4 5 4 5 6 6 3 5 3 3 5 7 9 10 11 12 15 16
11 9 10 14 9 11 12 16 14 11 9 5 4 3 4 3 2 4 6 6 4 4 5 3 5 5 6 7 11 9 9 11 9 10 11 13 13 14
12 12 11 10 12 10 5 7 11 13 13 8 7 5 2 1 1 2 1 3 4 4 6 5 4 7 5 3 8 12 15 13 11 10 9 11 13 14
14 13 12 13 14 13 10 10 10 10 10 7 7 6 6 3 6 4 4 4 6 5 4 5 3 6 6 6 4 4 9 11 11 9 10 9 10 11
11 14 13 12 13 15 9 9 8 7 8 5 5 5 5 5 6 5 3 5 6 1 3 5 6 7 7 7 5 4 4 6 7 9 10 10 9 8
9 8 13 11 11 13 10 9 9 7 9 8 4 2 4 2 3 6 8 8 7 5 5 5 6 4 4 0 2 3 3 4 6 5 6 7 10 8
9 8 8 8 10 9 9 8 8 9 4 5 5 5 6 6 7 7 8 7 7 5 4 4 4 4 2 5 3 4 5 5 4 2 3 5 7 4
8 7 5 2 6 8 8 11 15 10 6 5 5 4 7 8 6 4 4 4 3 2 4 2 2 1 1 2 4 4 2 2 2 3 6 6 6 7
6 3 7 11 10 8 4 10 7 9 9 8 8 7 1 1 3 5 7 5 4 5 5 4 3 2 2 3 3 4 3 2 1 1 2 2 3 3
1 5 2 6 9 9 6 6 7 7 7 8 10 8 7 8 8 7 8 8 8 4 10 8 7 6 6 7 7 8 4 4 7 5 4 3 4 4
11 7 6 7 8 9 9 9 9 10 9 9 11 11 11 11 9 9 10 10 10 8 4 5 7 8 10 10 11 8 6 7 7 4 4 4 5 5
8 6 7 7 8 8 9 10 10 11 10 10 10 10 9 7 4 9 7 7 8 9 9 10 9 8 9 10 5 4 5 6 8 7 8 9 6 3
5 7 7 7 8 9 9 9 9 8 8 9 10 10 10 11 11 10 10 9 6 5 6 8 8 5 7 8 9 5 7 8 10 9 8 10 9 5
4 7 7 7 8 8 8 8 8 8 9 9 9 10 9 9 9 10 10 11 11 11 11 10 5 8 9 10 8 10 11 7 6 7 8 9 10 12
6 7 7 8 8 8 8 7 8 8 7 8 9 9 9 10 12 12 12 17 13 8 9 9 9 6 9 7 8 8 7 9 4 5 9 10 11 11
6 6 7 7 7 6 7 7 8 8 9 9 9 10 11 10 10 9 11 10 9 9 9 9 7 6 7 7 7 9 8 10 8 8 13 13 10 11
4 5 6 6 6 6 6 7 8 8 8 9 9 10 9 7 8 11 9 9 11 9 7 7 7 6 7 5 7 10 13 14 12 12 12 6 8 12
Wind_Direction
291 239 255 290 298 295 299 303 313 305 309 329 322 216 150 342 288 211 227 193 202 204 203 212 213 214 219 221 222 227 225 223 224 219 215 220 206 208
310 354 318 298 310 278 273 299 331 296 283 315 306 314 60 343 250 258 253 154 205 206 200 206 207 208 216 222 225 229 226 221 218 219 216 223 211 212
301 275 275 310 275 291 296 280 280 295 265 260 291 15 352 304 332 319 271 239 201 32 21 331 244 215 218 225 232 235 232 225 214 215 216 214 219 211
344 340 330 320 301 298 299 294 270 263 292 304 304 284 311 348 313 301 288 88 104 97 80 1 303 289 234 232 236 243 232 223 228 210 212 217 224 209
22 17 15 4 352 331 320 310 318 311 310 270 282 279 267 277 307 260 322 334 141 136 145 196 233 251 241 221 230 246 243 227 222 223 218 223 209 210
30 30 34 23 7 352 330 327 327 317 305 307 312 315 290 111 308 331 300 20 22 22 29 35 300 249 245 225 221 225 235 246 246 228 231 227 224 217
46 48 45 49 43 38 13 2 357 343 334 329 335 342 16 24 11 342 26 356 57 11 20 29 8 332 308 257 33 254 242 245 252 261 250 231 231 221
35 29 52 35 68 78 66 61 45 22 22 17 24 32 19 36 29 354 356 333 323 37 355 352 325 320 357 54 25 44 42 15 327 270 254 253 243 234
43 36 32 32 19 8 45 59 65 42 30 41 50 47 47 25 347 307 240 274 299 351 326 299 299 303 302 314 6 19 20 23 13 348 310 269 251 241
43 29 38 32 19 7 19 27 33 40 24 14 19 16 10 335 316 332 327 299 253 238 224 292 316 309 316 300 236 24 50 27 3 11 360 321 272 258
63 43 25 31 0 352 3 18 24 45 123 86 38 15 337 331 330 321 328 311 302 38 136 295 4 327 327 315 339 28 36 49 12 6 4 360 335 269
76 84 47 19 359 356 17 15 13 14 356 6 46 170 315 74 238 288 333 336 347 339 60 309 351 349 321 353 305 307 345 347 335 331 353 355 345 342
46 54 42 1 338 357 348 16 340 304 60 36 34 32 24 26 22 8 6 7 350 358 357 340 352 354 310 320 328 22 358 340 311 269 323 342 334 340
43 52 59 248 291 336 24 333 323 333 5 78 47 6 3 9 45 36 59 50 79 167 217 184 152 142 296 305 325 342 54 6 13 11 345 337 308 277
58 127 266 282 223 244 267 292 340 17 3 2 3 6 182 353 297 275 196 184 194 217 213 224 213 214 226 236 255 251 228 203 203 274 279 331 336 341
348 269 349 290 273 284 351 358 5 9 350 359 343 351 344 342 352 337 338 330 312 240 199 219 241 259 286 251 294 301 239 261 178 192 219 230 241 227
327 317 8 8 6 5 2 2 358 359 12 347 354 341 352 349 348 336 334 342 329 7 25 179 216 252 285 297 293 306 335 330 334 123 233 308 286 211
307 4 6 6 7 360 355 357 358 358 1 334 341 335 342 325 300 320 345 331 332 334 339 336 324 321 312 317 72 3 358 335 332 325 308 302 295 278
291 25 6 4 1 3 358 355 357 7 354 352 342 342 343 340 338 339 317 332 315 317 301 281 306 308 311 316 317 20 299 292 296 302 325 322 313 308
318 8 6 3 4 1 358 351 357 346 356 349 337 346 339 334 331 334 332 346 343 331 328 334 28 355 334 317 319 313 313 305 297 310 312 325 323 305
27 4 6 356 1 358 354 348 336 353 348 342 344 334 329 352 0 353 346 340 324 327 318 328 318 284 294 309 296 309 295 281 247 323 312 307 304 307
19 2 2 356 350 357 346 343 339 347 354 347 346 328 7 352 348 333 328 321 315 313 296 292 296 324 333 329 333 332 324 331 321 275 261 256 287 301
5 12 346 347 344 357 348 338 349 348 353 346 335 2 338 344 346 317 316 310 313 324 322 321 313 317 328 323 314 318 327 327 324 330 323 350 245 275